JES3994 SAEZ-SABE

Flight info

Callsign JES3994
Flight time 0h 12m
Altitude 5000
Route DCT TRINI DCT VANAR
Aircraft A320/M-SDE3FGHIRWY/LB1

Departure

Time 2026-05-05 20:12
Airport Ezeiza International Airport - Ministro Pistarini (SAEZ)

Arrival

Time 2026-05-05 20:25
Airport Aeroparque Jorge Newbery (SABE)
Time Latitude Longitude Altitude Speed Heading
2026-05-05 19:51 -34.81463 -58.53753 75 ft 0 kts 326°
2026-05-05 20:03 -34.81474 -58.53744 65 ft 2 kts 326°
2026-05-05 20:03 -34.81488 -58.53733 69 ft 2 kts 326°
2026-05-05 20:03 -34.81502 -58.53720 75 ft 3 kts 307°
2026-05-05 20:04 -34.81510 -58.53701 75 ft 3 kts 270°
2026-05-05 20:04 -34.81511 -58.53674 75 ft 2 kts 272°
2026-05-05 20:04 -34.81511 -58.53661 75 ft 2 kts 272°
2026-05-05 20:04 -34.81512 -58.53640 75 ft 2 kts 255°
2026-05-05 20:05 -34.81508 -58.53627 75 ft 0 kts 231°
2026-05-05 20:06 -34.81510 -58.53630 75 ft 1 kts 231°
2026-05-05 20:06 -34.81523 -58.53647 68 ft 4 kts 224°
2026-05-05 20:06 -34.81547 -58.53674 75 ft 5 kts 222°
2026-05-05 20:06 -34.81578 -58.53707 67 ft 6 kts 223°
2026-05-05 20:07 -34.81613 -58.53749 75 ft 8 kts 224°
2026-05-05 20:07 -34.81657 -58.53800 75 ft 10 kts 223°
2026-05-05 20:07 -34.81707 -58.53866 65 ft 12 kts 234°
2026-05-05 20:07 -34.81741 -58.53934 75 ft 9 kts 239°
2026-05-05 20:08 -34.81773 -58.54000 75 ft 9 kts 243°
2026-05-05 20:08 -34.81792 -58.54082 66 ft 11 kts 265°
2026-05-05 20:08 -34.81783 -58.54189 75 ft 14 kts 279°
2026-05-05 20:08 -34.81769 -58.54314 76 ft 10 kts 277°
2026-05-05 20:09 -34.81758 -58.54413 76 ft 13 kts 277°
2026-05-05 20:09 -34.81752 -58.54527 69 ft 10 kts 266°
2026-05-05 20:09 -34.81767 -58.54624 69 ft 13 kts 253°
2026-05-05 20:09 -34.81779 -58.54740 66 ft 15 kts 273°
2026-05-05 20:10 -34.81757 -58.54876 68 ft 18 kts 283°
2026-05-05 20:10 -34.81726 -58.55038 73 ft 21 kts 282°
2026-05-05 20:10 -34.81699 -58.55197 76 ft 15 kts 282°
2026-05-05 20:10 -34.81724 -58.55321 69 ft 17 kts 221°
2026-05-05 20:11 -34.81828 -58.55323 71 ft 14 kts 150°
2026-05-05 20:11 -34.81893 -58.55319 79 ft 7 kts 194°
2026-05-05 20:11 -34.81908 -58.55313 70 ft 2 kts 124°
2026-05-05 20:11 -34.81931 -58.55201 72 ft 36 kts 101°
2026-05-05 20:12 -34.82040 -58.54595 86 ft 107 kts 101°
2026-05-05 20:12 -34.82241 -58.53477 142 ft 155 kts 102°
2026-05-05 20:12 -34.82483 -58.52190 795 ft 156 kts 102°
2026-05-05 20:12 -34.82732 -58.50912 1561 ft 154 kts 101°
2026-05-05 20:13 -34.82975 -58.49614 2167 ft 163 kts 95°
2026-05-05 20:13 -34.82726 -58.48267 2722 ft 172 kts 59°
2026-05-05 20:13 -34.81892 -58.47178 3186 ft 187 kts 26°
2026-05-05 20:13 -34.80560 -58.46873 3542 ft 210 kts 354°
2026-05-05 20:14 -34.79119 -58.47490 3935 ft 236 kts 323°
2026-05-05 20:14 -34.77891 -58.48985 4316 ft 259 kts 311°
2026-05-05 20:14 -34.76702 -58.50642 4705 ft 260 kts 310°
2026-05-05 20:14 -34.75519 -58.52308 4948 ft 261 kts 310°
2026-05-05 20:15 -34.74339 -58.53972 4978 ft 259 kts 310°
2026-05-05 20:15 -34.73157 -58.55630 4979 ft 259 kts 310°
2026-05-05 20:15 -34.71974 -58.57285 4980 ft 259 kts 310°
2026-05-05 20:15 -34.70790 -58.58938 4982 ft 259 kts 310°
2026-05-05 20:16 -34.69622 -58.60563 4981 ft 259 kts 310°
2026-05-05 20:16 -34.68429 -58.62219 4973 ft 259 kts 310°
2026-05-05 20:16 -34.67240 -58.63870 4976 ft 259 kts 310°
2026-05-05 20:16 -34.66051 -58.65518 4978 ft 259 kts 310°
2026-05-05 20:17 -34.64873 -58.67149 4973 ft 259 kts 310°
2026-05-05 20:17 -34.63665 -58.68819 4971 ft 259 kts 310°
2026-05-05 20:17 -34.62490 -58.70445 4982 ft 259 kts 310°
2026-05-05 20:17 -34.61301 -58.72091 4990 ft 260 kts 310°
2026-05-05 20:18 -34.60110 -58.73738 4974 ft 259 kts 311°
2026-05-05 20:18 -34.58727 -58.75116 4789 ft 260 kts 333°
2026-05-05 20:18 -34.56982 -58.75625 4515 ft 261 kts 358°
2026-05-05 20:18 -34.55176 -58.75199 4399 ft 268 kts 21°
2026-05-05 20:19 -34.53648 -58.73902 4276 ft 272 kts 46°
2026-05-05 20:19 -34.52564 -58.72016 4117 ft 273 kts 56°
2026-05-05 20:19 -34.51546 -58.70075 3763 ft 272 kts 56°
2026-05-05 20:19 -34.50547 -58.68177 3562 ft 257 kts 56°
2026-05-05 20:20 -34.49632 -58.66442 3468 ft 233 kts 55°
2026-05-05 20:20 -34.48782 -58.64832 3361 ft 221 kts 55°
2026-05-05 20:20 -34.47971 -58.63300 3253 ft 210 kts 55°
2026-05-05 20:20 -34.47193 -58.61812 3160 ft 209 kts 60°
2026-05-05 20:21 -34.46742 -58.60196 3092 ft 197 kts 81°
2026-05-05 20:21 -34.46773 -58.58579 3008 ft 189 kts 100°
2026-05-05 20:21 -34.47237 -58.57109 2821 ft 186 kts 122°
2026-05-05 20:21 -34.47961 -58.55812 2601 ft 185 kts 124°
2026-05-05 20:22 -34.48688 -58.54516 2359 ft 185 kts 125°
2026-05-05 20:22 -34.49410 -58.53227 2116 ft 184 kts 125°
2026-05-05 20:22 -34.50129 -58.51943 1872 ft 184 kts 125°
2026-05-05 20:22 -34.50834 -58.50687 1633 ft 176 kts 123°
2026-05-05 20:23 -34.51486 -58.49520 1414 ft 157 kts 123°
2026-05-05 20:23 -34.52053 -58.48508 1225 ft 135 kts 123°
2026-05-05 20:23 -34.52568 -58.47585 1052 ft 131 kts 123°
2026-05-05 20:23 -34.53082 -58.46668 876 ft 131 kts 123°
2026-05-05 20:24 -34.53594 -58.45754 677 ft 131 kts 123°
2026-05-05 20:24 -34.54103 -58.44844 505 ft 130 kts 124°
2026-05-05 20:24 -34.54611 -58.43934 334 ft 130 kts 124°
2026-05-05 20:24 -34.55117 -58.43027 177 ft 130 kts 123°
2026-05-05 20:25 -34.55620 -58.42124 30 ft 126 kts 124°
2026-05-05 20:25 -34.55994 -58.41450 26 ft 47 kts 125°
2026-05-05 20:25 -34.56018 -58.41359 27 ft 6 kts 43°
2026-05-05 20:25 -34.55963 -58.41313 27 ft 9 kts 33°
2026-05-05 20:26 -34.55923 -58.41294 27 ft 3 kts 349°
2026-05-05 20:26 -34.55890 -58.41295 27 ft 6 kts 15°
2026-05-05 20:26 -34.55871 -58.41282 27 ft 4 kts 27°
2026-05-05 20:26 -34.55832 -58.41270 27 ft 8 kts 23°
2026-05-05 20:27 -34.55804 -58.41245 27 ft 1 kts 39°
2026-05-05 20:27 -34.55803 -58.41245 27 ft 0 kts 39°